FW1737 Weather Reports


Display with metric or nautical units.
time (UTC)temp
F
wind
direction
speed
MPH
gust
MPH
rain 1hr
in
rain 24hr
in
rain mn
in
humidity
%
barometer
mb
20210624002531 56 250 0.0 3.0 0.00 0.49 0.49 97 1019.2
20210624002034 56 250 1.0 4.0 0.00 0.49 0.49 97 1019.0
20210624001625 56 250 2.0 4.0 0.00 0.49 0.49 97 1019.1
20210624001028 57 272 1.0 2.0 0.00 0.49 0.49 96 1018.8
20210624000536 57 272 0.0 2.0 0.00 0.49 0.49 96 1018.6
20210624000109 57 272 0.0 2.0 0.00 0.49 0.49 96 1018.6
20210623235540 58 272 0.0 0.0 0.00 0.49 0.49 96 1018.4
20210623235035 58 272 0.0 2.0 0.00 0.49 0.49 96 1018.3
20210623234606 58 272 1.0 3.0 0.00 0.49 0.49 95 1018.2
20210623234023 59 272 1.0 3.0 0.00 0.49 0.49 94 1018.2
20210623233521 59 272 1.0 3.0 0.00 0.49 0.49 94 1018.1
20210623233021 59 272 2.0 3.0 0.00 0.49 0.49 93 1017.9
20210623232526 60 273 2.0 3.0 0.00 0.49 0.49 92 1017.7
20210623232016 61 273 0.0 2.0 0.00 0.49 0.49 90 1017.6
20210623231524 62 273 0.0 0.0 0.00 0.49 0.49 88 1017.4
20210623231026 63 273 0.0 0.0 0.00 0.49 0.49 87 1017.4
20210623230520 64 273 0.0 0.0 0.00 0.49 0.49 87 1017.3
20210623230022 64 273 0.0 2.0 0.00 0.49 0.49 87 1017.2
20210623225522 63 273 1.0 4.0 0.00 0.49 0.49 87 1017.4
20210623225014 63 273 0.0 4.0 0.00 0.49 0.49 87 1017.2
20210623224540 63 261 2.0 4.0 0.00 0.49 0.49 86 1017.2
20210623224015 64 253 0.0 5.0 0.00 0.49 0.49 86 1017.2
20210623223534 64 217 3.0 5.0 0.00 0.49 0.49 86 1017.0
20210623223016 64 207 1.0 6.0 0.00 0.49 0.49 86 1017.1
20210623222511 65 213 3.0 6.0 0.00 0.49 0.49 85 1016.9
20210623222014 65 215 3.0 7.0 0.00 0.49 0.49 84 1016.7
20210623221512 65 261 1.0 7.0 0.00 0.49 0.49 84 1016.8
20210623221029 65 271 3.0 8.0 0.00 0.49 0.49 83 1016.6
20210623220514 65 270 2.0 9.0 0.00 0.49 0.49 83 1016.5
20210623220025 65 267 3.0 9.0 0.00 0.49 0.49 84 1016.5
20210623215508 65 279 1.0 3.0 0.00 0.49 0.49 84 1016.3
20210623215025 65 287 1.0 7.0 0.00 0.49 0.49 85 1016.3
20210623214516 64 259 2.0 7.0 0.00 0.49 0.49 84 1016.2
20210623214007 64 279 2.0 8.0 0.00 0.49 0.49 84 1016.2
20210623213507 64 225 1.0 6.0 0.00 0.49 0.49 86 1016.2
20210623213016 63 310 2.0 5.0 0.00 0.49 0.49 86 1016.3
20210623212514 63 231 3.0 10.0 0.00 0.49 0.49 85 1016.3
20210623212010 63 281 5.0 10.0 0.00 0.49 0.49 85 1016.2
20210623211511 63 229 4.0 10.0 0.00 0.49 0.49 85 1016.1
20210623211017 63 280 3.0 9.0 0.00 0.49 0.49 87 1016.0
20210623210503 63 311 5.0 10.0 0.00 0.49 0.49 86 1015.6
20210623210007 63 209 4.0 10.0 0.00 0.51 0.49 86 1015.5
20210623205503 63 250 3.0 7.0 0.00 0.51 0.49 88 1015.5
20210623205003 63 273 2.0 9.0 0.00 0.51 0.49 88 1015.4
20210623204106 63 255 2.0 11.0 0.00 0.51 0.49 87 1015.3
20210623203606 63 286 4.0 11.0 0.00 0.51 0.49 86 1015.1
20210623203139 63 245 3.0 8.0 0.00 0.51 0.49 86 1015.0
20210623202559 63 265 3.0 12.0 0.00 0.51 0.49 86 1014.8
20210623202102 64 272 4.0 12.0 0.00 0.51 0.49 84 1014.8
20210623201640 64 290 4.0 11.0 0.00 0.51 0.49 85 1014.6
20210623201101 64 348 4.0 11.0 0.00 0.51 0.49 84 1014.5
20210623200555 65 344 3.0 10.0 0.00 0.51 0.49 83 1014.5
20210623200214 65 250 5.0 12.0 0.00 0.51 0.49 82 1014.4
20210623195558 65 46 3.0 12.0 0.00 0.56 0.49 83 1014.3
20210623195053 65 237 6.0 12.0 0.00 0.56 0.49 82 1014.1
20210623194629 65 288 5.0 12.0 0.00 0.56 0.49 83 1013.9
20210623194052 65 261 5.0 14.0 0.00 0.56 0.49 83 1013.9
20210623193557 65 331 6.0 14.0 0.00 0.56 0.49 83 1013.8
20210623193139 65 313 6.0 15.0 0.00 0.56 0.49 83 1014.0
20210623192550 65 285 9.0 15.0 0.00 0.56 0.49 83 1014.0
20210623192050 65 55 3.0 14.0 0.00 0.56 0.49 85 1013.9
20210623191757 64 174 4.0 20.0 0.00 0.56 0.49 87 1013.8
20210623191049 63 323 3.0 20.0 0.00 0.56 0.49 87 1013.8
20210623190548 63 282 5.0 15.0 0.00 0.56 0.49 87 1013.8
20210623190106 63 269 8.0 15.0 0.00 0.56 0.49 86 1013.7
20210623185554 63 351 5.0 22.0 0.00 0.56 0.49 88 1013.5
20210623185105 63 315 11.0 22.0 0.00 0.56 0.49 86 1013.3
20210623184557 63 350 8.0 15.0 0.00 0.56 0.49 87 1013.2
20210623184054 63 318 8.0 20.0 0.00 0.56 0.49 87 1013.1
20210623183607 63 242 8.0 20.0 0.00 0.56 0.49 88 1013.0
20210623183204 63 306 4.0 17.0 0.00 0.56 0.49 88 1012.8
20210623182546 63 288 6.0 16.0 0.00 0.56 0.49 88 1012.9
20210623182151 64 282 8.0 16.0 0.00 0.56 0.49 87 1012.7
20210623181614 64 309 5.0 15.0 0.00 0.56 0.49 87 1012.6
20210623181038 64 248 4.0 15.0 0.00 0.56 0.49 88 1012.4
20210623180602 64 221 4.0 12.0 0.00 0.56 0.49 89 1012.2
20210623180046 64 313 6.0 12.0 0.00 0.56 0.49 87 1012.2
20210623175537 64 211 5.0 15.0 0.00 0.56 0.49 90 1012.1
20210623175046 63 294 7.0 17.0 0.00 0.56 0.49 89 1012.0
20210623174605 63 263 7.0 14.0 0.00 0.56 0.49 91 1011.9
20210623174034 63 302 4.0 12.0 0.00 0.56 0.49 93 1011.8
20210623173535 62 351 5.0 13.0 0.00 0.56 0.49 91 1011.6
20210623173101 62 180 6.0 13.0 0.00 0.56 0.49 92 1011.5
20210623172531 62 323 4.0 12.0 0.00 0.56 0.49 92 1011.3
20210623172029 62 155 5.0 11.0 0.00 0.56 0.49 93 1011.3
20210623171555 61 74 1.0 19.0 0.00 0.56 0.49 93 1011.1
20210623171035 61 317 8.0 19.0 0.00 0.56 0.49 92 1011.2
20210623170526 61 55 4.0 11.0 0.00 0.56 0.49 92 1011.1
20210623170119 61 308 0.0 13.0 0.00 0.57 0.49 93 1010.9
20210623165523 61 355 6.0 13.0 0.00 0.57 0.49 93 1010.8
20210623165023 61 295 4.0 16.0 0.00 0.57 0.49 93 1010.7
20210623164554 61 285 2.0 16.0 0.00 0.57 0.49 93 1010.5
20210623164022 62 281 4.0 17.0 0.00 0.57 0.49 93 1010.4
20210623163519 62 330 8.0 17.0 0.00 0.57 0.49 91 1010.3
20210623163018 63 318 3.0 12.0 0.00 0.57 0.49 92 1010.2
20210623162517 63 331 4.0 16.0 0.00 0.57 0.49 92 1009.9
20210623162049 63 254 5.0 16.0 0.00 0.57 0.49 92 1009.7
20210623161552 64 303 2.0 27.0 0.00 0.57 0.49 92 1009.8
20210623161014 64 236 8.0 27.0 0.00 0.57 0.49 90 1009.6
20210623160522 66 309 2.0 14.0 0.00 0.57 0.49 90 1009.2
20210623160019 66 304 6.0 14.0 0.00 0.59 0.49 90 1009.0
20210623155520 67 258 6.0 12.0 0.00 0.59 0.49 91 1008.8
20210623155020 67 246 5.0 16.0 0.00 0.59 0.49 93 1008.7
20210623154518 66 294 4.0 8.0 0.00 0.59 0.49 94 1008.6
20210623154009 66 258 3.0 15.0 0.00 0.59 0.49 96 1008.6
20210623153514 65 258 7.0 15.0 0.00 0.59 0.49 94 1008.7
20210623153009 65 265 6.0 12.0 0.00 0.59 0.49 95 1008.5
20210623152525 64 218 3.0 12.0 0.00 0.59 0.49 96 1008.2
20210623152009 64 251 2.0 12.0 0.00 0.59 0.49 96 1008.2
20210623151512 64 275 2.0 12.0 0.00 0.59 0.49 97 1008.2
20210623151004 64 286 5.0 16.0 0.00 0.59 0.49 96 1008.1
20210623150511 64 266 7.0 16.0 0.00 0.59 0.49 95 1008.2
20210623150023 65 252 4.0 14.0 0.00 0.59 0.49 96 1008.0
20210623145510 65 216 6.0 17.0 0.00 0.59 0.49 96 1007.9
20210623145007 65 288 9.0 17.0 0.00 0.59 0.49 96 1007.7
20210623144613 65 252 9.0 17.0 0.00 0.59 0.49 96 1007.6
20210623144109 65 261 4.0 16.0 0.01 0.59 0.49 97 1007.4
20210623143558 65 248 5.0 16.0 0.01 0.59 0.49 97 1007.6
20210623143126 65 281 3.0 14.0 0.01 0.59 0.49 98 1007.4
20210623142603 66 281 3.0 13.0 0.01 0.59 0.49 98 1007.3
20210623142056 66 269 7.0 13.0 0.01 0.59 0.49 98 1006.9
20210623141637 66 201 5.0 10.0 0.01 0.59 0.49 98 1006.8
20210623141105 66 286 3.0 12.0 0.01 0.59 0.49 99 1006.7
20210623140557 66 290 5.0 12.0 0.01 0.59 0.49 99 1006.7
20210623140133 66 247 2.0 9.0 0.01 0.59 0.49 99 1006.5
20210623135555 67 273 1.0 9.0 0.01 0.59 0.49 99 1006.4
20210623135055 67 285 3.0 12.0 0.01 0.59 0.49 99 1006.4
20210623134705 68 290 5.0 12.0 0.01 0.59 0.49 100 1006.2
20210623134055 68 275 5.0 12.0 0.00 0.57 0.48 100 1006.1
20210623133603 68 166 8.0 12.0 0.00 0.57 0.48 100 1005.9
20210623133116 68 215 8.0 11.0 0.00 0.57 0.48 100 1005.9
20210623132553 68 178 6.0 13.0 0.00 0.57 0.48 100 1005.9
20210623132053 68 225 4.0 16.0 0.00 0.57 0.48 100 1005.9
20210623131702 68 150 7.0 13.0 0.00 0.57 0.48 100 1005.6
20210623131105 68 155 7.0 11.0 0.00 0.57 0.48 100 1005.7
20210623130557 68 204 5.0 15.0 0.00 0.57 0.48 100 1005.7
20210623130159 68 186 8.0 15.0 0.00 0.57 0.48 100 1005.6
20210623125553 68 180 6.0 10.0 0.00 0.57 0.48 100 1005.6
20210623125107 68 175 6.0 10.0 0.00 0.57 0.48 100 1005.6
20210623124612 68 165 4.0 12.0 0.00 0.57 0.48 100 1005.5
20210623124050 68 231 6.0 12.0 0.01 0.57 0.48 100 1005.5
20210623123609 68 216 4.0 9.0 0.01 0.57 0.48 100 1005.5
20210623123101 67 218 4.0 9.0 0.01 0.57 0.48 100 1005.5
20210623122548 67 212 4.0 8.0 0.01 0.57 0.48 100 1005.5
20210623122048 67 222 3.0 10.0 0.01 0.57 0.48 100 1005.5
20210623121733 67 192 4.0 10.0 0.02 0.57 0.48 100 1005.5
20210623121047 67 221 4.0 7.0 0.02 0.57 0.48 100 1005.3
20210623120545 66 215 3.0 8.0 0.02 0.57 0.48 100 1005.2
20210623120153 66 223 3.0 8.0 0.03 0.57 0.48 100 1005.4
20210623115542 66 237 1.0 5.0 0.04 0.57 0.48 100 1005.6
20210623115048 65 240 2.0 4.0 0.06 0.57 0.48 100 1005.6
20210623114607 64 248 0.0 3.0 0.09 0.57 0.48 100 1005.5
20210623114052 64 249 0.0 0.0 0.15 0.56 0.47 100 1005.4
20210623113540 64 249 0.0 1.0 0.21 0.56 0.47 100 1005.5
20210623113121 64 249 0.0 2.0 0.31 0.56 0.47 100 1005.6
20210623112538 64 249 0.0 2.0 0.44 0.56 0.47 100 1005.7
20210623112038 64 249 0.0 3.0 0.46 0.56 0.47 100 1005.7
20210623111639 64 249 1.0 3.0 0.46 0.56 0.46 100 1005.9
20210623111053 64 238 0.0 3.0 0.45 0.56 0.46 100 1005.9
20210623110536 64 239 1.0 3.0 0.46 0.56 0.46 100 1006.0
20210623110148 64 187 0.0 4.0 0.45 0.55 0.45 100 1005.9
20210623105606 64 185 1.0 4.0 0.43 0.54 0.43 100 1006.1
20210623105037 64 242 0.0 7.0 0.41 0.51 0.41 100 1006.1
20210623104609 64 250 2.0 7.0 0.38 0.48 0.38 100 1006.1
20210623104055 64 197 4.0 7.0 0.28 0.39 0.28 100 1006.1
20210623103536 64 245 1.0 3.0 0.25 0.35 0.25 100 1005.9
20210623102532 65 205 0.0 4.0 0.02 0.13 0.02 100 1005.9
20210623102040 65 224 2.0 4.0 0.02 0.12 0.02 100 1006.1
20210623101616 65 160 0.0 4.0 0.01 0.11 0.01 100 1006.2
20210623101039 65 160 2.0 8.0 0.01 0.11 0.01 100 1006.1
20210623100531 65 199 1.0 8.0 0.00 0.10 0.00 100 1006.2
20210623100053 65 149 2.0 7.0 0.00 0.10 0.00 100 1006.3
20210623095532 65 290 1.0 5.0 0.00 0.10 0.00 100 1006.4
20210623095038 65 224 0.0 2.0 0.00 0.10 0.00 100 1006.4
20210623094607 65 211 0.0 4.0 0.00 0.10 0.00 100 1006.3
20210623094029 65 253 0.0 6.0 0.00 0.10 0.00 100 1006.1
20210623093528 65 211 3.0 6.0 0.00 0.10 0.00 100 1006.2
20210623093055 65 223 2.0 6.0 0.00 0.10 0.00 100 1006.2
20210623092545 64 240 3.0 5.0 0.00 0.10 0.00 100 1006.2
20210623092025 64 267 0.0 6.0 0.00 0.10 0.00 100 1006.2
20210623091606 64 267 1.0 6.0 0.00 0.10 0.00 100 1006.3
20210623091027 64 280 2.0 6.0 0.00 0.10 0.00 100 1006.3
20210623090522 64 238 0.0 4.0 0.00 0.10 0.00 100 1006.4
20210623090034 64 238 2.0 4.0 0.00 0.10 0.00 100 1006.6
20210623085521 64 261 0.0 0.0 0.00 0.10 0.00 100 1006.5
20210623085020 63 261 0.0 0.0 0.00 0.10 0.00 100 1006.5
20210623084600 63 261 0.0 1.0 0.00 0.10 0.00 100 1006.5
20210623084020 63 261 0.0 3.0 0.00 0.10 0.00 100 1006.5
20210623083526 63 261 0.0 3.0 0.00 0.10 0.00 100 1006.5
20210623083053 63 205 0.0 4.0 0.00 0.10 0.00 100 1006.6
20210623082519 63 130 1.0 4.0 0.00 0.10 0.00 100 1006.6
20210623082022 63 222 0.0 3.0 0.00 0.10 0.00 100 1006.7
20210623081541 64 222 0.0 6.0 0.00 0.10 0.00 100 1006.7
20210623081030 64 221 0.0 6.0 0.00 0.10 0.00 100 1006.7
20210623080530 64 229 2.0 5.0 0.00 0.10 0.00 100 1006.7
20210623080102 64 187 2.0 5.0 0.00 0.10 0.00 100 1006.8
20210623075516 64 209 1.0 4.0 0.00 0.10 0.00 100 1006.6
20210623075016 64 209 1.0 4.0 0.00 0.10 0.00 100 1006.7
20210623074542 64 223 1.0 6.0 0.00 0.10 0.00 100 1006.6
20210623074015 64 184 3.0 6.0 0.00 0.10 0.00 100 1006.6
20210623073515 64 149 1.0 6.0 0.00 0.10 0.00 100 1006.7
20210623073042 64 149 3.0 6.0 0.00 0.10 0.00 100 1006.7
20210623072514 63 147 0.0 5.0 0.00 0.10 0.00 100 1006.7
20210623072013 63 247 2.0 4.0 0.00 0.10 0.00 100 1006.6
20210623071517 63 252 0.0 0.0 0.00 0.10 0.00 100 1006.6
20210623071013 63 252 0.0 0.0 0.00 0.10 0.00 100 1006.5
20210623070518 63 252 0.0 0.0 0.00 0.10 0.00 100 1006.5
20210623070022 63 252 0.0 0.0 0.00 0.10 0.00 100 1006.6
20210623065511 63 252 0.0 0.0 0.00 0.10 0.00 100 1006.7
20210623065010 63 252 0.0 0.0 0.00 0.10 0.00 100 1006.8
20210623064522 63 252 0.0 0.0 0.00 0.10 0.00 100 1006.9
20210623064018 63 252 0.0 0.0 0.00 0.10 0.00 100 1006.9
20210623063509 63 252 0.0 0.0 0.00 0.10 0.00 100 1006.9
20210623063023 63 252 0.0 0.0 0.00 0.10 0.00 100 1007.0
20210623062509 63 252 0.0 1.0 0.00 0.10 0.00 100 1007.0
20210623062008 63 252 0.0 2.0 0.00 0.10 0.00 100 1007.0
20210623061518 63 252 0.0 2.0 0.00 0.10 0.00 100 1007.0
20210623061008 63 252 0.0 0.0 0.00 0.10 0.00 100 1007.0
20210623060524 63 252 0.0 1.0 0.00 0.10 0.00 100 1007.3
20210623060007 63 252 0.0 2.0 0.00 0.10 0.00 100 1007.3
20210623055507 63 252 0.0 3.0 0.00 0.10 0.00 100 1007.4
20210623055006 63 252 1.0 3.0 0.00 0.10 0.00 100 1007.3
20210623054506 63 238 1.0 3.0 0.00 0.10 0.00 100 1007.4
20210623054004 63 17 0.0 0.0 0.00 0.10 0.00 100 1007.5
20210623053509 63 17 0.0 2.0 0.00 0.10 0.00 100 1007.3
20210623053014 63 17 0.0 2.0 0.00 0.10 0.00 100 1007.3
20210623052504 63 17 0.0 0.0 0.00 0.10 0.00 100 1007.4
20210623052005 63 17 0.0 0.0 0.00 0.10 0.00 100 1007.3
20210623051504 63 17 0.0 0.0 0.00 0.10 0.00 100 1007.5
20210623051007 63 17 0.0 0.0 0.00 0.10 0.00 100 1007.5
20210623050501 63 17 0.0 0.0 0.00 0.10 0.00 100 1007.5
20210623050200 63 17 0.0 0.0 0.00 0.10 0.00 100 1007.6
20210623050002 63 17 0.0 0.0 0.00 0.10 0.00 100 1007.7
20210623045600 63 17 0.0 0.0 0.00 0.10 0.00 100 1007.6
20210623045059 63 17 0.0 1.0 0.00 0.10 0.00 100 1007.6
20210623044739 63 17 0.0 0.0 0.00 0.10 0.00 100 1007.7
20210623044059 64 17 0.0 0.0 0.00 0.10 0.00 100 1007.6
20210623043616 64 17 0.0 0.0 0.00 0.10 0.00 100 1007.7
20210623043240 64 17 0.0 0.0 0.00 0.10 0.00 100 1007.8
20210623042559 64 17 0.0 0.0 0.00 0.10 0.00 100 1007.8
20210623042059 64 17 0.0 0.0 0.00 0.10 0.00 100 1007.6
20210623041652 64 17 0.0 0.0 0.00 0.10 0.00 100 1007.7
20210623041058 64 17 0.0 0.0 0.00 0.10 0.00 100 1007.6
20210623040558 64 17 0.0 0.0 0.00 0.10 0.00 100 1007.6
20210623040241 64 17 0.0 0.0 0.00 0.10 0.00 100 1007.7
20210623035557 64 17 0.0 0.0 0.00 0.10 0.00 100 1007.7
20210623035057 64 17 0.0 0.0 0.00 0.10 0.00 100 1007.8
20210623034737 64 17 0.0 0.0 0.00 0.10 0.00 100 1007.7
20210623034106 64 17 0.0 0.0 0.00 0.10 0.00 100 1007.8
20210623033656 64 17 0.0 2.0 0.00 0.10 0.00 100 1007.8
20210623033146 64 17 0.0 2.0 0.00 0.10 0.00 100 1007.8
20210623032555 64 17 0.0 2.0 0.00 0.10 0.00 100 1007.8
20210623032106 64 18 0.0 0.0 0.00 0.10 0.00 100 1007.9
20210623031632 64 17 0.0 0.0 0.00 0.10 0.00 100 1007.7
20210623031106 64 17 0.0 0.0 0.00 0.10 0.00 100 1007.7
20210623030553 63 17 0.0 0.0 0.00 0.10 0.00 100 1007.8
20210623030151 64 17 0.0 0.0 0.00 0.10 0.00 100 1007.7
20210623025553 64 18 0.0 0.0 0.00 0.10 0.10 100 1007.7
20210623025052 64 18 0.0 1.0 0.00 0.10 0.10 100 1007.7
20210623024601 64 18 0.0 2.0 0.00 0.10 0.10 100 1007.8
20210623024154 64 18 0.0 1.0 0.00 0.10 0.10 100 1007.7
20210623023551 64 17 0.0 0.0 0.00 0.10 0.10 100 1007.9
20210623023250 64 18 0.0 0.0 0.00 0.10 0.10 100 1007.9
20210623022556 64 17 0.0 0.0 0.00 0.10 0.10 100 1008.0
20210623022122 64 17 0.0 2.0 0.00 0.10 0.10 100 1008.2
20210623021624 64 17 0.0 2.0 0.00 0.10 0.10 100 1008.2
20210623021101 64 18 1.0 2.0 0.00 0.10 0.10 100 1008.1
20210623020550 64 18 0.0 0.0 0.00 0.10 0.10 100 1008.0
20210623020134 64 19 0.0 0.0 0.00 0.10 0.10 100 1008.2
20210623015550 64 19 0.0 0.0 0.00 0.10 0.10 100 1008.0
20210623015050 64 19 0.0 0.0 0.00 0.10 0.10 100 1008.1
20210623014625 64 19 0.0 0.0 0.00 0.10 0.10 100 1008.0
20210623014050 64 19 0.0 1.0 0.00 0.10 0.10 100 1008.1
20210623013549 64 19 0.0 3.0 0.00 0.10 0.10 100 1008.1
20210623013325 64 19 1.0 3.0 0.00 0.10 0.10 100 1008.1
20210623012549 64 19 0.0 0.0 0.00 0.10 0.10 100 1008.1
20210623012049 64 19 0.0 0.0 0.00 0.10 0.10 100 1008.2
20210623011637 64 19 0.0 2.0 0.00 0.10 0.10 100 1008.4
20210623011050 64 19 1.0 2.0 0.00 0.10 0.10 100 1008.3
20210623010548 64 19 1.0 3.0 0.00 0.10 0.10 100 1008.2
20210623010137 64 19 1.0 3.0 0.00 0.10 0.10 100 1008.1
20210623005047 64 19 0.0 3.0 0.00 0.10 0.10 100 1008.2
20210623004612 64 19 1.0 3.0 0.00 0.10 0.10 100 1008.0
20210623004047 64 17 1.0 3.0 0.00 0.10 0.10 100 1007.8
20210623003611 64 17 0.0 3.0 0.00 0.10 0.10 100 1007.8
20210623003101 64 17 1.0 3.0 0.00 0.10 0.10 100 1007.8